Regional Weather Roundup
Issued by NWS Jackson, KY

Home | Current Version | Previous Version | Graphics & Text | Print | Product List | Glossary On
Versions: 1 2 3 4 5 6 7 8 9 10 11 12 13 14 15 16 17 18 19 20 21 22 23 24 25 26 27 28 29 30 31 32 33 34 35 36 37 38 39 40 41 42 43 44 45 46 47 48 49 50
000
ASUS43 KJKL 280710
RWRJKL

EAST KENTUCKY HOURLY WEATHER ROUNDUP
NATIONAL WEATHER SERVICE JACKSON KY
300 AM EDT FRI AUG 28 2015

NOTE: "FAIR" INDICATES FEW OR NO CLOUDS BELOW 12,000 FEET WITH
NO SIGNIFICANT WEATHER AND/OR OBSTRUCTIONS TO VISIBILITY.

* THESE REPORTS ARE NOT UNDER NWS QUALITY CONTROL AND MAY NOT
  REPORT WEATHER SUCH AS PRECIPITATION AND FOG.

KYZ079-080-083-085-087-088-110-112-115-119-120-280800
...EASTERN KENTUCKY...

CITY           SKY/WX    TMP DP  RH WIND       PRES   REMARKS
JACKSON        CLEAR     59  55  87 CALM      30.14S
LONDON         CLEAR     60  53  77 CALM      30.13S
SOMERSET*      CLEAR     59  54  82 CALM      30.13F
MONTICELLO*    CLEAR     55  55 100 CALM      30.14F
WILLIAMSBURG*  CLEAR     55  55 100 CALM      30.12F
MIDDLESBORO*   PTCLDY    59  58  97 CALM      30.13F
HAZARD APT*    SUNNY     57  57 100 CALM      30.13F
BLACK MTN*       N/A     59  55  88 CALM        N/A
PIKEVILLE APT* MOCLDY    61  57  88 SE3       30.14F
BIG SANDY*     SUNNY     57  56  99 CALM      30.14F
MOREHEAD APT*  SUNNY     59  54  82 CALM      30.16S
$$

KYZ035-036-041-042-044-050-067-078-099-280800
...CENTRAL KENTUCKY...

CITY           SKY/WX    TMP DP  RH WIND       PRES   REMARKS
MT STERLING*   CLEAR     54  54 100 CALM      30.15S
FLEMING/MASON* CLEAR     55  54  94 E3        30.15F
DANVILLE*      CLEAR     54  52  94 CALM      30.14F
RICHMOND*      CLEAR     54  52  94 CALM      30.13S
LEXINGTON      CLEAR     60  52  74 E3        30.13F
FRANKFORT      CLEAR     55  52  89 CALM      30.12F
$$

KYZ091>093-OHZ055-061-077-WVZ005-015-034-035-042-280800
...SOUTHERN OHIO/WEST VIRGINIA...

CITY           SKY/WX    TMP DP  RH WIND       PRES   REMARKS
COVINGTON      PTCLDY    59  56  89 CALM      30.14F
COLUMBUS       CLEAR     59  55  87 CALM      30.15S
DAYTON         CLEAR     59  56  89 E5        30.16S
WILMINGTON     CLEAR     53  50  89 CALM      30.15F
HUNTINGTON     CLEAR     55  55 100 CALM      30.13F FOG
CHARLESTON     PTCLDY    55  54  96 CALM      30.14F FOG
PINEVILLE*     CLEAR     56  56 100 MISG      30.20F FOG
BECKLEY        CLEAR     56  52  86 CALM      30.19F
BLUEFIELD      CLEAR     60  54  80 SE5       30.20F
$$

VAZ002-007-008-TNZ017-027-036-066-071-280800
...SOUTHWEST VIRGINIA/EAST TENNESSEE...

CITY           SKY/WX    TMP DP  RH WIND       PRES   REMARKS
WISE*          CLEAR     61  55  82 CALM      30.18F
JONESVILLE*      N/A     59  59 100 CALM      30.15F
ABINGDON*      CLEAR     62  57  82 CALM      30.16F
BRISTOL        PTCLDY    61  58  90 CALM      30.14S
KNOXVILLE      PTCLDY    68  59  73 NE7       30.08F
OAK RIDGE      CLOUDY    66  59  78 CALM      30.11F
CROSSVILLE     CLEAR     60  56  86 NE3       30.14S
NASHVILLE      CLEAR     65  56  72 N5        30.09S
$$

...KEY TO REMARKS...
VSB - VISIBILITY IN MILES
WCI - WIND CHILL INDEX
HX  - HEAT INDEX

$$



USA.gov is the U.S. government's official web portal to all federal, state and local government web resources and services.